[[{"header":{"parameterUnit":"m.s-1","parameterCategory":1,"la1":30.2992,"la2":30.254,"lo1":-89.0895,"lo2":-89.0443,"dy":0.0025,"dx":0.0025,"nx":19,"ny":19,"refTime":"2026-05-02T03:00:00:Z","depth":0,"parameterNumber":2,"parameterNumberName":"U-component_of_WINDS"},"data":[0,0,0,-0.6316,-0.6318,-0.6449,-0.645,-0.6626,-0.6628,0,0,0,0,0,0,0,0,0,0,0,-0.628,-0.6281,-0.6315,-0.6319,-0.6449,-0.645,-0.6626,-0.6628,0,0,0,0,0,0,0,0,0,0,0,-0.6279,-0.6281,-0.6282,-0.6319,-0.6449,-0.645,-0.6625,-0.6524,0,0,0,0,0,0,0,0,0,0,-0.6396,-0.6365,-0.628,-0.6282,-0.632,-0.6449,-0.645,-0.6519,-0.6531,-0.657,0,-0.6603,0,-0.6618,-0.664,-0.6641,0,0,0,-0.6317,-0.6356,-0.6388,-0.6282,-0.6321,-0.6449,-0.639,-0.6526,-0.6538,-0.6585,-0.6606,-0.6612,-0.6621,-0.6641,-0.6642,-0.687,-0.6871,0,0,-0.631,-0.6305,-0.6379,-0.6396,-0.6374,-0.6386,-0.6394,-0.6533,-0.6557,-0.6607,-0.6616,-0.6624,-0.6642,-0.6644,-0.6869,-0.687,0,0,0,-0.629,-0.63,-0.6329,-0.6389,-0.6412,-0.639,-0.6399,-0.655,-0.656,-0.6618,-0.6626,-0.6643,-0.6646,-0.6868,-0.687,-0.6922,0,0,0,-0.6286,-0.6289,-0.6326,-0.6325,-0.6409,-0.6482,-0.6413,-0.655,-0.6566,-0.6625,-0.6643,-0.6647,-0.6866,-0.6869,-0.6918,-0.6949,0,0,0,-0.627,-0.6287,-0.6307,-0.6324,-0.638,-0.648,-0.6498,-0.6554,-0.6571,-0.6641,-0.6648,-0.6866,-0.6868,-0.6914,-0.6943,-0.701,0,0,0,-0.6253,-0.6351,-0.6307,-0.642,-0.6379,-0.651,-0.6497,-0.6595,-0.6661,-0.6644,-0.6867,-0.6869,-0.6913,-0.6939,-0.7006,-0.7067,-0.7091,0,0,-0.6374,-0.6365,-0.6432,-0.6397,-0.6535,-0.649,-0.6637,-0.6702,-0.6714,-0.6818,-0.6824,-0.6919,-0.6942,-0.7009,-0.7223,-0.7242,0,0,0,-0.6469,-0.6518,-0.6555,-0.6616,-0.6667,-0.6715,-0.6758,-0.6782,-0.6871,-0.6765,-0.696,-0.6974,-0.7013,-0.7043,-0.706,-0.7095,-0.6882,-0.6882,-0.6881,-0.6636,-0.6645,-0.6757,-0.6782,-0.6842,-0.6885,-0.6936,-0.6977,-0.6968,-0.7014,-0.7046,-0.7175,-0.7209,-0.7222,-0.7259,-0.7076,-0.7077,-0.7077,-0.7077,-0.6817,-0.6889,-0.6874,-0.6978,-0.6988,-0.7076,-0.7123,-0.7114,-0.72,-0.7151,-0.7186,-0.7134,-0.7242,-0.7276,-0.7081,-0.708,-0.708,-0.7079,-0.7079,-0.693,-0.6966,-0.6993,-0.7084,-0.7154,-0.7175,-0.7259,-0.7264,-0.727,-0.7304,-0.7341,-0.734,-0.7343,-0.732,-0.7321,-0.7321,-0.7322,-0.7322,-0.7322,-0.7038,-0.7067,-0.7135,-0.7198,-0.7239,-0.7294,-0.7339,-0.7381,-0.7429,-0.7427,-0.7427,-0.7417,-0.7249,-0.7209,-0.7329,-0.7328,-0.7327,-0.7327,-0.7326,-0.7225,-0.7183,-0.7289,-0.733,-0.7406,-0.7477,-0.7481,-0.7566,-0.7601,-0.7643,-0.7625,-0.7499,-0.7491,-0.7478,-0.7446,-0.762,-0.762,-0.762,-0.762,-0.7323,-0.7318,-0.7429,-0.7495,-0.756,-0.7575,-0.7699,-0.7736,-0.7768,-0.7791,-0.7766,-0.7722,-0.7708,-0.7709,-0.7691,-0.7661,-0.7886,-0.7886,-0.7886,-0.744,-0.7442,-0.7545,-0.7573,-0.7633,-0.7685,-0.7803,-0.7882,-0.791,-0.7897,-0.7811,-0.7799,-0.7728,-0.7703,-0.7692,-0.7664,-0.7608,0,0]},{"header":{"parameterUnit":"m.s-1","parameterCategory":1,"la1":30.2992,"la2":30.254,"lo1":-89.0895,"lo2":-89.0443,"dy":0.0025,"dx":0.0025,"nx":19,"ny":19,"refTime":"2026-05-02T03:00:00:Z","depth":0,"parameterNumber":3,"parameterNumberName":"V-component_of_WINDS"},"data":[0,0,0,-1.245,-1.245,-1.2481,-1.2481,-1.2533,-1.2534,0,0,0,0,0,0,0,0,0,0,0,-1.2448,-1.2448,-1.2449,-1.245,-1.2481,-1.2482,-1.2533,-1.2534,0,0,0,0,0,0,0,0,0,0,0,-1.2447,-1.2448,-1.2449,-1.2451,-1.2481,-1.2482,-1.2533,-1.2505,0,0,0,0,0,0,0,0,0,0,-1.2473,-1.2478,-1.2448,-1.2449,-1.2451,-1.2481,-1.2482,-1.2504,-1.2507,-1.2525,0,-1.2542,0,-1.2539,-1.2538,-1.2538,0,0,0,-1.2445,-1.2476,-1.2478,-1.2449,-1.2451,-1.2481,-1.2466,-1.2506,-1.2509,-1.2529,-1.2543,-1.2544,-1.254,-1.2539,-1.2539,-1.266,-1.2661,0,0,-1.2443,-1.2457,-1.2475,-1.248,-1.2476,-1.2465,-1.2467,-1.2508,-1.2523,-1.2543,-1.2545,-1.2541,-1.2539,-1.254,-1.2659,-1.266,0,0,0,-1.2442,-1.2456,-1.2457,-1.2479,-1.2483,-1.2466,-1.2468,-1.2521,-1.252,-1.2546,-1.2541,-1.2539,-1.254,-1.2658,-1.2659,-1.2716,0,0,0,-1.2441,-1.2455,-1.2456,-1.2465,-1.2483,-1.2503,-1.2481,-1.2518,-1.2522,-1.2541,-1.2539,-1.2541,-1.2657,-1.2659,-1.2712,-1.274,0,0,0,-1.2443,-1.2455,-1.2463,-1.2466,-1.248,-1.2502,-1.2503,-1.2518,-1.252,-1.2538,-1.2541,-1.2657,-1.2659,-1.2709,-1.2735,-1.2778,0,0,0,-1.245,-1.251,-1.2464,-1.253,-1.2479,-1.2536,-1.2503,-1.2544,-1.2566,-1.254,-1.2657,-1.2659,-1.2708,-1.2732,-1.2775,-1.2818,-1.2837,0,0,-1.2534,-1.2521,-1.2559,-1.2518,-1.2587,-1.253,-1.2607,-1.2614,-1.2602,-1.2641,-1.2644,-1.2713,-1.2734,-1.2777,-1.2934,-1.2949,0,0,0,-1.2591,-1.2619,-1.2634,-1.2657,-1.2664,-1.2674,-1.2667,-1.267,-1.2703,-1.2625,-1.2739,-1.2751,-1.2775,-1.2796,-1.2809,-1.283,-1.2669,-1.2668,-1.2668,-1.2731,-1.2714,-1.2777,-1.2764,-1.2787,-1.2781,-1.2798,-1.2801,-1.2776,-1.2803,-1.2815,-1.2913,-1.2937,-1.2946,-1.2969,-1.2835,-1.2835,-1.2835,-1.2836,-1.2856,-1.2893,-1.286,-1.2909,-1.2891,-1.2932,-1.2929,-1.291,-1.2946,-1.2902,-1.2922,-1.2878,-1.2964,-1.2982,-1.284,-1.2839,-1.2838,-1.2838,-1.2838,-1.2947,-1.2963,-1.2966,-1.2999,-1.3026,-1.301,-1.3047,-1.3028,-1.3011,-1.3031,-1.3043,-1.3042,-1.3041,-1.3038,-1.3038,-1.3038,-1.3039,-1.3039,-1.3039,-1.3042,-1.3044,-1.3077,-1.3092,-1.3105,-1.312,-1.3116,-1.3128,-1.3138,-1.3121,-1.3121,-1.3095,-1.2974,-1.2946,-1.3044,-1.3043,-1.3043,-1.3042,-1.3042,-1.3178,-1.3145,-1.3197,-1.321,-1.3227,-1.3256,-1.3232,-1.3259,-1.3267,-1.3286,-1.3255,-1.3169,-1.3154,-1.3143,-1.312,-1.3257,-1.3257,-1.3257,-1.3258,-1.3257,-1.3248,-1.3298,-1.3321,-1.3342,-1.3326,-1.3386,-1.3384,-1.3376,-1.338,-1.3357,-1.3323,-1.3313,-1.3304,-1.329,-1.3268,-1.344,-1.3441,-1.3441,-1.3341,-1.3333,-1.3388,-1.338,-1.3392,-1.3403,-1.346,-1.3489,-1.3472,-1.3448,-1.3383,-1.3375,-1.3321,-1.3303,-1.3279,-1.3258,-1.3217,0,0]}]]